Time,TemperatureF,DewpointF,PressureIn,WindDirection,WindDirectionDegrees,WindSpeedMPH,WindSpeedGustMPH,Humidity,HourlyPrecipIn,Conditions,Clouds,dailyrainin,SoftwareType,DateUTC
2013-04-17 00:00:00,53.8,26.8,30.19,NW,307,1.0,1.0,35,0.00,,,0.00,Wunderground v.1.15,2013-04-17 07:00:00,
2013-04-17 00:10:00,53.8,26.8,30.19,WNW,289,0.0,0.0,35,0.00,,,0.00,Wunderground v.1.15,2013-04-17 07:10:00,
2013-04-17 00:15:00,53.6,27.3,30.19,WNW,286,0.0,0.0,36,0.00,,,0.00,Wunderground v.1.15,2013-04-17 07:15:00,
2013-04-17 00:20:00,53.2,27.6,30.19,West,265,0.0,0.0,37,0.00,,,0.00,Wunderground v.1.15,2013-04-17 07:20:00,
2013-04-17 00:30:00,52.8,27.2,30.19,NW,323,0.0,0.0,37,0.00,,,0.00,Wunderground v.1.15,2013-04-17 07:30:00,
2013-04-17 00:35:00,52.6,26.4,30.19,NW,321,1.0,1.0,36,0.00,,,0.00,Wunderground v.1.15,2013-04-17 07:35:00,
2013-04-17 00:40:00,52.7,27.1,30.19,WSW,246,1.0,5.0,37,0.00,,,0.00,Wunderground v.1.15,2013-04-17 07:40:00,
2013-04-17 00:45:00,53.1,26.8,30.20,NNE,15,1.0,5.0,36,0.00,,,0.00,Wunderground v.1.15,2013-04-17 07:45:00,
2013-04-17 00:55:00,53.4,26.4,30.20,SE,124,1.0,2.0,35,0.00,,,0.00,Wunderground v.1.15,2013-04-17 07:55:00,
2013-04-17 01:00:00,53.1,26.1,30.20,NNW,328,1.0,1.0,35,0.00,,,0.00,Wunderground v.1.15,2013-04-17 08:00:00,
2013-04-17 01:05:00,52.8,27.9,30.20,NNW,328,0.0,1.0,38,0.00,,,0.00,Wunderground v.1.15,2013-04-17 08:05:00,
2013-04-17 01:10:00,52.2,26.7,30.20,NW,313,0.0,0.0,37,0.00,,,0.00,Wunderground v.1.15,2013-04-17 08:10:00,
2013-04-17 01:15:00,51.8,27.0,30.20,ESE,117,0.0,0.0,38,0.00,,,0.00,Wunderground v.1.15,2013-04-17 08:15:00,
2013-04-17 01:25:00,52.2,26.7,30.20,WSW,248,0.0,0.0,37,0.00,,,0.00,Wunderground v.1.15,2013-04-17 08:25:00,
2013-04-17 01:30:00,52.5,26.3,30.20,NNW,348,1.0,1.0,36,0.00,,,0.00,Wunderground v.1.15,2013-04-17 08:30:00,
2013-04-17 01:35:00,52.6,26.4,30.20,SSE,161,1.0,1.0,36,0.00,,,0.00,Wunderground v.1.15,2013-04-17 08:35:00,
2013-04-17 01:40:00,52.7,26.5,30.20,SSE,149,1.0,1.0,36,0.00,,,0.00,Wunderground v.1.15,2013-04-17 08:40:00,
2013-04-17 01:45:00,52.7,26.5,30.20,East,98,1.0,1.0,36,0.00,,,0.00,Wunderground v.1.15,2013-04-17 08:45:00,
2013-04-17 01:55:00,52.7,27.1,30.21,North,10,1.0,6.0,37,0.00,,,0.00,Wunderground v.1.15,2013-04-17 08:55:00,
2013-04-17 02:00:00,52.4,26.9,30.21,NW,306,1.0,1.0,37,0.00,,,0.00,Wunderground v.1.15,2013-04-17 09:00:00,
2013-04-17 02:05:00,52.2,27.3,30.21,North,350,1.0,4.0,38,0.00,,,0.00,Wunderground v.1.15,2013-04-17 09:05:00,
2013-04-17 02:10:00,51.8,27.0,30.21,WNW,288,1.0,2.0,38,0.00,,,0.00,Wunderground v.1.15,2013-04-17 09:10:00,
2013-04-17 02:15:00,51.7,27.5,30.20,WNW,283,1.0,2.0,39,0.00,,,0.00,Wunderground v.1.15,2013-04-17 09:15:00,
2013-04-17 02:25:00,51.2,28.9,30.21,NW,326,0.0,2.0,42,0.00,,,0.00,Wunderground v.1.15,2013-04-17 09:25:00,
2013-04-17 02:30:00,50.9,27.4,30.21,NW,309,1.0,1.0,40,0.00,,,0.00,Wunderground v.1.15,2013-04-17 09:30:00,
2013-04-17 02:35:00,50.9,27.4,30.20,WNW,284,1.0,1.0,40,0.00,,,0.00,Wunderground v.1.15,2013-04-17 09:35:00,
2013-04-17 02:40:00,51.0,28.1,30.20,WSW,249,1.0,3.0,41,0.00,,,0.00,Wunderground v.1.15,2013-04-17 09:40:00,
2013-04-17 02:45:00,51.1,28.2,30.20,West,275,1.0,3.0,41,0.00,,,0.00,Wunderground v.1.15,2013-04-17 09:45:00,
2013-04-17 02:50:00,50.8,28.5,30.20,SSE,158,0.0,0.0,42,0.00,,,0.00,Wunderground v.1.15,2013-04-17 09:50:00,
2013-04-17 03:00:00,51.0,28.1,30.20,WNW,286,1.0,1.0,41,0.00,,,0.00,Wunderground v.1.15,2013-04-17 10:00:00,
2013-04-17 03:05:00,51.4,27.9,30.20,SSE,165,1.0,1.0,40,0.00,,,0.00,Wunderground v.1.15,2013-04-17 10:05:00,
2013-04-17 03:10:00,51.8,28.2,30.20,SE,126,0.0,0.0,40,0.00,,,0.00,Wunderground v.1.15,2013-04-17 10:10:00,
2013-04-17 03:15:00,52.0,28.4,30.20,ESE,117,1.0,1.0,40,0.00,,,0.00,Wunderground v.1.15,2013-04-17 10:15:00,
2013-04-17 03:20:00,52.1,27.9,30.20,WNW,294,1.0,1.0,39,0.00,,,0.00,Wunderground v.1.15,2013-04-17 10:20:00,
2013-04-17 03:25:00,52.2,28.0,30.20,NE,44,1.0,1.0,39,0.00,,,0.00,Wunderground v.1.15,2013-04-17 10:25:00,
2013-04-17 03:35:00,52.4,28.1,30.19,ESE,107,1.0,1.0,39,0.00,,,0.00,Wunderground v.1.15,2013-04-17 10:35:00,
2013-04-17 03:40:00,52.4,27.5,30.20,ENE,63,1.0,1.0,38,0.00,,,0.00,Wunderground v.1.15,2013-04-17 10:40:00,
2013-04-17 03:45:00,52.4,28.1,30.20,WSW,242,1.0,1.0,39,0.00,,,0.00,Wunderground v.1.15,2013-04-17 10:45:00,
2013-04-17 03:50:00,52.4,28.1,30.20,WNW,294,1.0,8.0,39,0.00,,,0.00,Wunderground v.1.15,2013-04-17 10:50:00,
2013-04-17 04:00:00,52.5,28.2,30.20,SSE,153,2.0,2.0,39,0.00,,,0.00,Wunderground v.1.15,2013-04-17 11:00:00,
2013-04-17 04:05:00,52.4,28.1,30.20,WNW,284,1.0,2.0,39,0.00,,,0.00,Wunderground v.1.15,2013-04-17 11:05:00,
2013-04-17 04:10:00,52.4,28.1,30.20,SW,223,1.0,1.0,39,0.00,,,0.00,Wunderground v.1.15,2013-04-17 11:10:00,
2013-04-17 04:15:00,52.4,28.1,30.20,NW,311,2.0,2.0,39,0.00,,,0.00,Wunderground v.1.15,2013-04-17 11:15:00,
2013-04-17 04:25:00,52.4,28.1,30.21,East,97,2.0,2.0,39,0.00,,,0.00,Wunderground v.1.15,2013-04-17 11:25:00,
2013-04-17 04:30:00,52.4,28.1,30.21,NNE,33,1.0,1.0,39,0.00,,,0.00,Wunderground v.1.15,2013-04-17 11:30:00,
2013-04-17 04:35:00,52.2,28.6,30.21,SSE,148,1.0,2.0,40,0.00,,,0.00,Wunderground v.1.15,2013-04-17 11:35:00,
2013-04-17 04:40:00,52.2,28.0,30.21,WNW,293,1.0,1.0,39,0.00,,,0.00,Wunderground v.1.15,2013-04-17 11:40:00,
2013-04-17 04:50:00,52.1,27.9,30.21,WNW,295,0.0,1.0,39,0.00,,,0.00,Wunderground v.1.15,2013-04-17 11:50:00,
2013-04-17 04:55:00,51.9,27.7,30.21,West,268,1.0,1.0,39,0.00,,,0.00,Wunderground v.1.15,2013-04-17 11:55:00,
2013-04-17 05:00:00,51.6,28.0,30.21,WSW,244,0.0,0.0,40,0.00,,,0.00,Wunderground v.1.15,2013-04-17 12:00:00,
2013-04-17 05:05:00,51.3,27.8,30.21,NW,312,0.0,0.0,40,0.00,,,0.00,Wunderground v.1.15,2013-04-17 12:05:00,
2013-04-17 05:10:00,51.0,27.5,30.21,West,266,0.0,0.0,40,0.00,,,0.00,Wunderground v.1.15,2013-04-17 12:10:00,
2013-04-17 05:20:00,51.0,28.1,30.21,NW,305,1.0,1.0,41,0.00,,,0.00,Wunderground v.1.15,2013-04-17 12:20:00,
2013-04-17 05:25:00,51.0,28.1,30.21,East,95,0.0,1.0,41,0.00,,,0.00,Wunderground v.1.15,2013-04-17 12:25:00,
2013-04-17 05:30:00,51.0,27.5,30.21,West,263,1.0,1.0,40,0.00,,,0.00,Wunderground v.1.15,2013-04-17 12:30:00,
2013-04-17 05:40:00,51.1,28.2,30.22,West,275,1.0,1.0,41,0.00,,,0.00,Wunderground v.1.15,2013-04-17 12:40:00,
2013-04-17 05:45:00,51.1,27.6,30.22,North,5,1.0,1.0,40,0.00,,,0.00,Wunderground v.1.15,2013-04-17 12:45:00,
2013-04-17 05:50:00,50.9,28.0,30.22,North,360,0.0,0.0,41,0.00,,,0.00,Wunderground v.1.15,2013-04-17 12:50:00,
2013-04-17 05:55:00,50.5,28.2,30.22,NW,309,0.0,0.0,42,0.00,,,0.00,Wunderground v.1.15,2013-04-17 12:55:00,
2013-04-17 06:05:00,50.1,27.9,30.23,WNW,285,0.0,1.0,42,0.00,,,0.00,Wunderground v.1.15,2013-04-17 13:05:00,
2013-04-17 06:10:00,49.8,28.2,30.23,WNW,298,1.0,1.0,43,0.00,,,0.00,Wunderground v.1.15,2013-04-17 13:10:00,
2013-04-17 06:15:00,49.7,28.6,30.23,NW,325,1.0,1.0,44,0.00,,,0.00,Wunderground v.1.15,2013-04-17 13:15:00,
2013-04-17 06:20:00,49.6,28.6,30.23,NNW,328,0.0,0.0,44,0.00,,,0.00,Wunderground v.1.15,2013-04-17 13:20:00,
2013-04-17 06:25:00,49.5,29.0,30.24,NW,322,0.0,1.0,45,0.00,,,0.00,Wunderground v.1.15,2013-04-17 13:25:00,
2013-04-17 06:30:00,49.5,29.6,30.24,NW,317,1.0,1.0,46,0.00,,,0.00,Wunderground v.1.15,2013-04-17 13:30:00,
2013-04-17 06:40:00,49.8,29.3,30.24,West,279,2.0,5.0,45,0.00,,,0.00,Wunderground v.1.15,2013-04-17 13:40:00,
2013-04-17 06:45:00,50.1,29.6,30.24,West,271,1.0,5.0,45,0.00,,,0.00,Wunderground v.1.15,2013-04-17 13:45:00,
2013-04-17 06:50:00,50.1,29.6,30.25,West,267,1.0,1.0,45,0.00,,,0.00,Wunderground v.1.15,2013-04-17 13:50:00,
2013-04-17 06:55:00,50.1,29.6,30.25,WSW,250,1.0,1.0,45,0.00,,,0.00,Wunderground v.1.15,2013-04-17 13:55:00,
2013-04-17 07:05:00,50.1,30.1,30.25,WSW,242,1.0,1.0,46,0.00,,,0.00,Wunderground v.1.15,2013-04-17 14:05:00,
2013-04-17 07:10:00,50.3,30.3,30.25,NNW,347,1.0,1.0,46,0.00,,,0.00,Wunderground v.1.15,2013-04-17 14:10:00,
2013-04-17 07:15:00,50.6,30.0,30.25,West,273,1.0,1.0,45,0.00,,,0.00,Wunderground v.1.15,2013-04-17 14:15:00,
2013-04-17 07:20:00,50.8,30.2,30.25,WSW,244,0.0,0.0,45,0.00,,,0.00,Wunderground v.1.15,2013-04-17 14:20:00,
2013-04-17 07:25:00,51.0,29.8,30.25,NW,306,1.0,1.0,44,0.00,,,0.00,Wunderground v.1.15,2013-04-17 14:25:00,
2013-04-17 07:30:00,51.2,30.0,30.26,WNW,296,0.0,0.0,44,0.00,,,0.00,Wunderground v.1.15,2013-04-17 14:30:00,
2013-04-17 07:45:00,51.5,30.3,30.26,NW,306,1.0,1.0,44,0.00,,,0.00,Wunderground v.1.15,2013-04-17 14:45:00,
2013-04-17 07:50:00,51.7,29.9,30.26,West,268,1.0,2.0,43,0.00,,,0.00,Wunderground v.1.15,2013-04-17 14:50:00,
2013-04-17 07:55:00,51.9,30.1,30.27,WSW,237,2.0,2.0,43,0.00,,,0.00,Wunderground v.1.15,2013-04-17 14:55:00,
2013-04-17 08:00:00,52.1,29.7,30.27,NW,311,2.0,2.0,42,0.00,,,0.00,Wunderground v.1.15,2013-04-17 15:00:00,
2013-04-17 08:10:00,52.5,30.0,30.27,West,265,1.0,1.0,42,0.00,,,0.00,Wunderground v.1.15,2013-04-17 15:10:00,
2013-04-17 08:15:00,52.7,29.6,30.27,WSW,247,1.0,4.0,41,0.00,,,0.00,Wunderground v.1.15,2013-04-17 15:15:00,
2013-04-17 08:20:00,52.9,29.8,30.27,NNW,329,2.0,2.0,41,0.00,,,0.00,Wunderground v.1.15,2013-04-17 15:20:00,
2013-04-17 08:25:00,53.1,30.6,30.28,SE,124,1.0,2.0,42,0.00,,,0.00,Wunderground v.1.15,2013-04-17 15:25:00,
2013-04-17 08:30:00,53.5,31.0,30.28,WNW,288,1.0,1.0,42,0.00,,,0.00,Wunderground v.1.15,2013-04-17 15:30:00,
2013-04-17 08:40:00,54.2,30.4,30.28,SSE,168,1.0,1.0,40,0.00,,,0.00,Wunderground v.1.15,2013-04-17 15:40:00,
2013-04-17 08:45:00,54.4,29.9,30.29,West,264,1.0,1.0,39,0.00,,,0.00,Wunderground v.1.15,2013-04-17 15:45:00,
2013-04-17 08:50:00,54.8,29.0,30.29,WNW,290,1.0,1.0,37,0.00,,,0.00,Wunderground v.1.15,2013-04-17 15:50:00,
2013-04-17 08:55:00,55.0,29.2,30.29,West,275,1.0,4.0,37,0.00,,,0.00,Wunderground v.1.15,2013-04-17 15:55:00,
2013-04-17 09:00:00,55.3,29.4,30.29,West,281,1.0,1.0,37,0.00,,,0.00,Wunderground v.1.15,2013-04-17 16:00:00,
2013-04-17 09:05:00,55.8,31.2,30.29,East,82,2.0,2.0,39,0.00,,,0.00,Wunderground v.1.15,2013-04-17 16:05:00,
2013-04-17 09:10:00,56.3,29.0,30.29,WSW,248,2.0,3.0,35,0.00,,,0.00,Wunderground v.1.15,2013-04-17 16:10:00,
2013-04-17 09:20:00,56.7,30.0,30.29,East,80,3.0,3.0,36,0.00,,,0.00,Wunderground v.1.15,2013-04-17 16:20:00,
2013-04-17 09:30:00,57.0,31.0,30.29,West,271,2.0,3.0,37,0.00,,,0.00,Wunderground v.1.15,2013-04-17 16:30:00,
2013-04-17 09:35:00,56.6,29.2,30.28,WNW,298,3.0,10.0,35,0.00,,,0.00,Wunderground v.1.15,2013-04-17 16:35:00,
2013-04-17 09:40:00,56.6,29.9,30.29,ENE,70,4.0,4.0,36,0.00,,,0.00,Wunderground v.1.15,2013-04-17 16:40:00,
2013-04-17 09:45:00,57.1,30.4,30.29,WSW,244,3.0,4.0,36,0.00,,,0.00,Wunderground v.1.15,2013-04-17 16:45:00,
2013-04-17 09:50:00,57.2,30.5,30.28,West,268,3.0,6.0,36,0.00,,,0.00,Wunderground v.1.15,2013-04-17 16:50:00,
2013-04-17 09:55:00,57.3,29.9,30.28,WSW,250,3.0,7.0,35,0.00,,,0.00,Wunderground v.1.15,2013-04-17 16:55:00,
2013-04-17 10:05:00,58.0,30.5,30.28,SE,130,2.0,3.0,35,0.00,,,0.00,Wunderground v.1.15,2013-04-17 17:05:00,
2013-04-17 10:10:00,58.7,32.5,30.28,NW,316,2.0,3.0,37,0.00,,,0.00,Wunderground v.1.15,2013-04-17 17:10:00,
2013-04-17 10:15:00,59.1,32.1,30.29,WNW,293,2.0,3.0,36,0.00,,,0.00,Wunderground v.1.15,2013-04-17 17:15:00,
2013-04-17 10:20:00,59.3,30.2,30.29,WNW,287,2.0,6.0,33,0.00,,,0.00,Wunderground v.1.15,2013-04-17 17:20:00,
2013-04-17 10:25:00,59.0,29.9,30.29,WSW,248,3.0,6.0,33,0.00,,,0.00,Wunderground v.1.15,2013-04-17 17:25:00,
2013-04-17 10:30:00,59.1,29.2,30.29,SE,146,3.0,3.0,32,0.00,,,0.00,Wunderground v.1.15,2013-04-17 17:30:00,
2013-04-17 10:35:00,59.4,29.5,30.29,NW,305,2.0,3.0,32,0.00,,,0.00,Wunderground v.1.15,2013-04-17 17:35:00,
2013-04-17 10:45:00,59.6,28.1,30.29,ENE,65,3.0,3.0,30,0.00,,,0.00,Wunderground v.1.15,2013-04-17 17:45:00,
2013-04-17 10:50:00,59.8,31.3,30.29,SSE,148,2.0,2.0,34,0.00,,,0.00,Wunderground v.1.15,2013-04-17 17:50:00,
2013-04-17 10:55:00,60.5,28.9,30.29,WSW,242,2.0,2.0,30,0.00,,,0.00,Wunderground v.1.15,2013-04-17 17:55:00,
2013-04-17 11:00:00,60.5,28.9,30.29,West,271,1.0,8.0,30,0.00,,,0.00,Wunderground v.1.15,2013-04-17 18:00:00,
2013-04-17 11:05:00,59.9,29.9,30.29,WNW,288,3.0,8.0,32,0.00,,,0.00,Wunderground v.1.15,2013-04-17 18:05:00,
2013-04-17 11:10:00,60.0,28.4,30.29,South,171,4.0,4.0,30,0.00,,,0.00,Wunderground v.1.15,2013-04-17 18:10:00,
2013-04-17 11:20:00,60.9,27.5,30.29,East,83,2.0,2.0,28,0.00,,,0.00,Wunderground v.1.15,2013-04-17 18:20:00,
2013-04-17 11:25:00,61.3,27.9,30.29,North,5,1.0,2.0,28,0.00,,,0.00,Wunderground v.1.15,2013-04-17 18:25:00,
2013-04-17 11:30:00,61.4,28.8,30.29,NNW,333,2.0,7.0,29,0.00,,,0.00,Wunderground v.1.15,2013-04-17 18:30:00,
2013-04-17 11:35:00,61.2,27.8,30.29,West,268,4.0,7.0,28,0.00,,,0.00,Wunderground v.1.15,2013-04-17 18:35:00,
2013-04-17 11:40:00,60.9,27.5,30.29,NNE,19,4.0,7.0,28,0.00,,,0.00,Wunderground v.1.15,2013-04-17 18:40:00,
2013-04-17 11:45:00,61.1,30.2,30.28,SSE,161,3.0,7.0,31,0.00,,,0.00,Wunderground v.1.15,2013-04-17 18:45:00,
2013-04-17 11:55:00,62.0,26.7,30.29,ESE,118,3.0,3.0,26,0.00,,,0.00,Wunderground v.1.15,2013-04-17 18:55:00,
2013-04-17 12:00:00,61.3,27.9,30.28,NW,309,4.0,4.0,28,0.00,,,0.00,Wunderground v.1.15,2013-04-17 19:00:00,
2013-04-17 12:05:00,61.6,26.3,30.28,South,186,5.0,5.0,26,0.00,,,0.00,Wunderground v.1.15,2013-04-17 19:05:00,
2013-04-17 12:10:00,61.8,26.5,30.28,West,263,3.0,3.0,26,0.00,,,0.00,Wunderground v.1.15,2013-04-17 19:10:00,
2013-04-17 12:15:00,61.8,25.6,30.28,North,5,3.0,3.0,25,0.00,,,0.00,Wunderground v.1.15,2013-04-17 19:15:00,
2013-04-17 12:25:00,62.2,23.9,30.28,SSE,155,3.0,4.0,23,0.00,,,0.00,Wunderground v.1.15,2013-04-17 19:25:00,
2013-04-17 12:30:00,62.2,24.9,30.28,ENE,65,3.0,3.0,24,0.00,,,0.00,Wunderground v.1.15,2013-04-17 19:30:00,
2013-04-17 12:35:00,62.6,25.3,30.27,West,279,3.0,4.0,24,0.00,,,0.00,Wunderground v.1.15,2013-04-17 19:35:00,
2013-04-17 12:40:00,62.9,26.5,30.27,NNW,327,2.0,3.0,25,0.00,,,0.00,Wunderground v.1.15,2013-04-17 19:40:00,
2013-04-17 12:45:00,63.1,26.7,30.27,SE,128,3.0,3.0,25,0.00,,,0.00,Wunderground v.1.15,2013-04-17 19:45:00,
2013-04-17 12:50:00,63.8,30.0,30.27,ESE,111,2.0,2.0,28,0.00,,,0.00,Wunderground v.1.15,2013-04-17 19:50:00,
2013-04-17 13:00:00,64.8,27.1,30.27,WSW,249,2.0,2.0,24,0.00,,,0.00,Wunderground v.1.15,2013-04-17 20:00:00,
2013-04-17 13:05:00,64.4,25.8,30.27,WSW,248,2.0,3.0,23,0.00,,,0.00,Wunderground v.1.15,2013-04-17 20:05:00,
2013-04-17 13:10:00,64.1,25.5,30.27,WSW,243,3.0,3.0,23,0.00,,,0.00,Wunderground v.1.15,2013-04-17 20:10:00,
2013-04-17 13:15:00,64.4,24.7,30.26,SW,223,2.0,3.0,22,0.00,,,0.00,Wunderground v.1.15,2013-04-17 20:15:00,
2013-04-17 13:20:00,64.5,26.9,30.26,South,169,2.0,2.0,24,0.00,,,0.00,Wunderground v.1.15,2013-04-17 20:20:00,
2013-04-17 13:30:00,64.3,28.7,30.26,ESE,121,3.0,3.0,26,0.00,,,0.00,Wunderground v.1.15,2013-04-17 20:30:00,
2013-04-17 13:35:00,64.3,24.6,30.26,NNW,336,4.0,5.0,22,0.00,,,0.00,Wunderground v.1.15,2013-04-17 20:35:00,
2013-04-17 13:40:00,64.4,24.7,30.26,East,84,3.0,3.0,22,0.00,,,0.00,Wunderground v.1.15,2013-04-17 20:40:00,
2013-04-17 13:50:00,64.8,26.1,30.25,NW,325,2.0,2.0,23,0.00,,,0.00,Wunderground v.1.15,2013-04-17 20:50:00,
2013-04-17 13:55:00,65.0,25.2,30.25,NW,306,2.0,4.0,22,0.00,,,0.00,Wunderground v.1.15,2013-04-17 20:55:00,
2013-04-17 14:05:00,65.0,24.1,30.25,NW,319,3.0,4.0,21,0.00,,,0.00,Wunderground v.1.15,2013-04-17 21:05:00,
2013-04-17 14:10:00,65.4,23.2,30.25,East,89,2.0,2.0,20,0.00,,,0.00,Wunderground v.1.15,2013-04-17 21:10:00,
2013-04-17 14:15:00,65.9,23.7,30.25,ESE,104,2.0,3.0,20,0.00,,,0.00,Wunderground v.1.15,2013-04-17 21:15:00,
2013-04-17 14:20:00,66.0,23.7,30.25,NNE,33,2.0,2.0,20,0.00,,,0.00,Wunderground v.1.15,2013-04-17 21:20:00,
2013-04-17 14:25:00,65.5,23.3,30.25,WNW,290,3.0,3.0,20,0.00,,,0.00,Wunderground v.1.15,2013-04-17 21:25:00,
2013-04-17 14:35:00,65.8,24.7,30.25,East,96,2.0,2.0,21,0.00,,,0.00,Wunderground v.1.15,2013-04-17 21:35:00,
2013-04-17 14:45:00,66.2,23.9,30.24,West,271,2.0,5.0,20,0.00,,,0.00,Wunderground v.1.15,2013-04-17 21:45:00,
2013-04-17 14:50:00,65.9,23.7,30.24,ESE,113,3.0,3.0,20,0.00,,,0.00,Wunderground v.1.15,2013-04-17 21:50:00,
2013-04-17 14:55:00,66.1,22.6,30.24,ESE,113,3.0,3.0,19,0.00,,,0.00,Wunderground v.1.15,2013-04-17 21:55:00,
2013-04-17 15:00:00,65.9,22.4,30.24,NW,309,3.0,7.0,19,0.00,,,0.00,Wunderground v.1.15,2013-04-17 22:00:00,
2013-04-17 15:05:00,65.9,22.4,30.24,West,278,4.0,7.0,19,0.00,,,0.00,Wunderground v.1.15,2013-04-17 22:05:00,
2013-04-17 15:15:00,65.6,23.4,30.23,WNW,298,2.0,5.0,20,0.00,,,0.00,Wunderground v.1.15,2013-04-17 22:15:00,
2013-04-17 15:20:00,66.1,22.6,30.23,NNE,16,2.0,2.0,19,0.00,,,0.00,Wunderground v.1.15,2013-04-17 22:20:00,
2013-04-17 15:25:00,66.5,26.4,30.23,ESE,117,1.0,2.0,22,0.00,,,0.00,Wunderground v.1.15,2013-04-17 22:25:00,
2013-04-17 15:35:00,66.8,24.4,30.23,ESE,122,1.0,2.0,20,0.00,,,0.00,Wunderground v.1.15,2013-04-17 22:35:00,
2013-04-17 15:40:00,66.7,23.1,30.22,SSW,202,2.0,2.0,19,0.00,,,0.00,Wunderground v.1.15,2013-04-17 22:40:00,
2013-04-17 15:45:00,66.6,23.0,30.22,ENE,64,2.0,2.0,19,0.00,,,0.00,Wunderground v.1.15,2013-04-17 22:45:00,
2013-04-17 15:50:00,66.6,23.0,30.22,SSW,202,2.0,3.0,19,0.00,,,0.00,Wunderground v.1.15,2013-04-17 22:50:00,
2013-04-17 15:55:00,66.3,22.8,30.22,NW,323,2.0,3.0,19,0.00,,,0.00,Wunderground v.1.15,2013-04-17 22:55:00,
2013-04-17 16:05:00,66.7,21.8,30.22,WNW,298,2.0,5.0,18,0.00,,,0.00,Wunderground v.1.15,2013-04-17 23:05:00,
2013-04-17 16:10:00,66.8,21.9,30.22,SE,141,2.0,2.0,18,0.00,,,0.00,Wunderground v.1.15,2013-04-17 23:10:00,
2013-04-17 16:15:00,66.7,23.1,30.22,ESE,113,1.0,2.0,19,0.00,,,0.00,Wunderground v.1.15,2013-04-17 23:15:00,
2013-04-17 16:25:00,66.6,23.0,30.22,ENE,61,2.0,2.0,19,0.00,,,0.00,Wunderground v.1.15,2013-04-17 23:25:00,
2013-04-17 16:30:00,66.5,21.6,30.22,ENE,60,2.0,4.0,18,0.00,,,0.00,Wunderground v.1.15,2013-04-17 23:30:00,
2013-04-17 16:35:00,66.8,21.9,30.21,West,265,1.0,4.0,18,0.00,,,0.00,Wunderground v.1.15,2013-04-17 23:35:00,
2013-04-17 16:45:00,67.1,23.4,30.21,West,274,2.0,7.0,19,0.00,,,0.00,Wunderground v.1.15,2013-04-17 23:45:00,
2013-04-17 16:50:00,66.9,23.3,30.21,ESE,112,2.0,2.0,19,0.00,,,0.00,Wunderground v.1.15,2013-04-17 23:50:00,
2013-04-17 16:55:00,66.9,23.3,30.21,SSE,163,1.0,2.0,19,0.00,,,0.00,Wunderground v.1.15,2013-04-17 23:55:00,
2013-04-17 17:00:00,66.9,22.0,30.21,NW,313,2.0,2.0,18,0.00,,,0.00,Wunderground v.1.15,2013-04-18 00:00:00,
2013-04-17 17:05:00,66.9,24.5,30.21,SE,132,2.0,2.0,20,0.00,,,0.00,Wunderground v.1.15,2013-04-18 00:05:00,
2013-04-17 17:10:00,67.0,22.1,30.21,South,188,1.0,1.0,18,0.00,,,0.00,Wunderground v.1.15,2013-04-18 00:10:00,
2013-04-17 17:20:00,66.4,22.8,30.21,SSE,156,1.0,1.0,19,0.00,,,0.00,Wunderground v.1.15,2013-04-18 00:20:00,
2013-04-17 17:25:00,66.4,22.8,30.21,ESE,109,1.0,1.0,19,0.00,,,0.00,Wunderground v.1.15,2013-04-18 00:25:00,
2013-04-17 17:30:00,66.4,24.1,30.21,SSW,205,1.0,1.0,20,0.00,,,0.00,Wunderground v.1.15,2013-04-18 00:30:00,
2013-04-17 17:35:00,66.1,23.8,30.21,WSW,250,1.0,4.0,20,0.00,,,0.00,Wunderground v.1.15,2013-04-18 00:35:00,
2013-04-17 17:45:00,65.4,23.2,30.21,SSE,155,1.0,1.0,20,0.00,,,0.00,Wunderground v.1.15,2013-04-18 00:45:00,
2013-04-17 17:50:00,65.1,20.5,30.21,NW,305,1.0,4.0,18,0.00,,,0.00,Wunderground v.1.15,2013-04-18 00:50:00,
2013-04-17 17:55:00,64.8,21.5,30.21,South,170,1.0,4.0,19,0.00,,,0.00,Wunderground v.1.15,2013-04-18 00:55:00,
2013-04-17 18:05:00,64.5,21.3,30.21,WSW,239,0.0,2.0,19,0.00,,,0.00,Wunderground v.1.15,2013-04-18 01:05:00,
2013-04-17 18:10:00,64.4,21.2,30.21,ESE,117,0.0,0.0,19,0.00,,,0.00,Wunderground v.1.15,2013-04-18 01:10:00,
2013-04-17 18:15:00,64.3,21.1,30.21,West,269,1.0,1.0,19,0.00,,,0.00,Wunderground v.1.15,2013-04-18 01:15:00,
2013-04-17 18:20:00,64.3,22.3,30.20,WSW,248,1.0,1.0,20,0.00,,,0.00,Wunderground v.1.15,2013-04-18 01:20:00,
2013-04-17 18:45:00,63.5,25.0,30.20,ESE,115,0.0,0.0,23,0.00,,,0.00,Wunderground v.1.15,2013-04-18 01:45:00,
2013-04-17 18:50:00,63.4,24.9,30.21,ESE,115,0.0,0.0,23,0.00,,,0.00,Wunderground v.1.15,2013-04-18 01:50:00,
2013-04-17 18:55:00,63.1,24.7,30.21,NNE,30,0.0,0.0,23,0.00,,,0.00,Wunderground v.1.15,2013-04-18 01:55:00,
2013-04-17 19:05:00,62.6,24.2,30.21,WNW,303,0.0,0.0,23,0.00,,,0.00,Wunderground v.1.15,2013-04-18 02:05:00,
2013-04-17 19:10:00,62.4,24.1,30.21,ENE,59,0.0,0.0,23,0.00,,,0.00,Wunderground v.1.15,2013-04-18 02:10:00,
2013-04-17 19:20:00,62.0,25.7,30.21,NNW,344,0.0,0.0,25,0.00,,,0.00,Wunderground v.1.15,2013-04-18 02:20:00,
2013-04-17 19:25:00,61.2,27.8,30.21,NNW,344,0.0,0.0,28,0.00,,,0.00,Wunderground v.1.15,2013-04-18 02:25:00,
2013-04-17 19:30:00,60.5,26.3,30.21,NNW,344,0.0,0.0,27,0.00,,,0.00,Wunderground v.1.15,2013-04-18 02:30:00,
2013-04-17 19:35:00,59.7,27.4,30.21,NNW,344,0.0,1.0,29,0.00,,,0.00,Wunderground v.1.15,2013-04-18 02:35:00,
2013-04-17 19:45:00,58.8,27.4,30.21,NNW,344,0.0,0.0,30,0.00,,,0.00,Wunderground v.1.15,2013-04-18 02:45:00,
2013-04-17 19:50:00,58.7,28.9,30.22,NNW,344,0.0,1.0,32,0.00,,,0.00,Wunderground v.1.15,2013-04-18 02:50:00,
2013-04-17 19:55:00,58.4,29.4,30.22,NNW,338,0.0,1.0,33,0.00,,,0.00,Wunderground v.1.15,2013-04-18 02:55:00,
2013-04-17 20:05:00,58.0,31.8,30.22,NW,325,0.0,1.0,37,0.00,,,0.00,Wunderground v.1.15,2013-04-18 03:05:00,
2013-04-17 20:10:00,58.0,33.2,30.22,NW,307,0.0,0.0,39,0.00,,,0.00,Wunderground v.1.15,2013-04-18 03:10:00,
2013-04-17 20:20:00,57.9,34.9,30.22,NW,315,0.0,0.0,42,0.00,,,0.00,Wunderground v.1.15,2013-04-18 03:20:00,
2013-04-17 20:25:00,57.8,36.0,30.23,NW,315,0.0,0.0,44,0.00,,,0.00,Wunderground v.1.15,2013-04-18 03:25:00,
2013-04-17 20:30:00,57.6,36.4,30.23,NW,315,0.0,0.0,45,0.00,,,0.00,Wunderground v.1.15,2013-04-18 03:30:00,
2013-04-17 20:35:00,57.2,36.6,30.22,NW,315,0.0,0.0,46,0.00,,,0.00,Wunderground v.1.15,2013-04-18 03:35:00,
2013-04-17 20:40:00,57.0,37.0,30.23,NW,315,1.0,1.0,47,0.00,,,0.00,Wunderground v.1.15,2013-04-18 03:40:00,
2013-04-17 20:50:00,56.9,36.9,30.23,NW,315,1.0,1.0,47,0.00,,,0.00,Wunderground v.1.15,2013-04-18 03:50:00,
2013-04-17 20:55:00,56.6,37.1,30.23,NW,315,1.0,1.0,48,0.00,,,0.00,Wunderground v.1.15,2013-04-18 03:55:00,
2013-04-17 21:00:00,56.4,36.9,30.24,NW,315,1.0,1.0,48,0.00,,,0.00,Wunderground v.1.15,2013-04-18 04:00:00,
2013-04-17 21:05:00,56.2,36.8,30.24,NW,315,1.0,1.0,48,0.00,,,0.00,Wunderground v.1.15,2013-04-18 04:05:00,
2013-04-17 21:10:00,56.0,37.1,30.24,NW,315,1.0,1.0,49,0.00,,,0.00,Wunderground v.1.15,2013-04-18 04:10:00,
2013-04-17 21:15:00,55.9,37.0,30.24,NW,315,0.0,1.0,49,0.00,,,0.00,Wunderground v.1.15,2013-04-18 04:15:00,
2013-04-17 21:20:00,55.7,36.8,30.24,NW,315,0.0,0.0,49,0.00,,,0.00,Wunderground v.1.15,2013-04-18 04:20:00,
2013-04-17 21:25:00,55.6,37.2,30.24,NW,315,0.0,0.0,50,0.00,,,0.00,Wunderground v.1.15,2013-04-18 04:25:00,
2013-04-17 21:35:00,55.0,36.7,30.25,NW,315,0.0,0.0,50,0.00,,,0.00,Wunderground v.1.15,2013-04-18 04:35:00,
2013-04-17 21:40:00,55.0,36.7,30.25,NW,315,0.0,0.0,50,0.00,,,0.00,Wunderground v.1.15,2013-04-18 04:40:00,
2013-04-17 21:45:00,54.3,36.5,30.25,NW,315,0.0,0.0,51,0.00,,,0.00,Wunderground v.1.15,2013-04-18 04:45:00,
2013-04-17 21:50:00,53.5,36.8,30.25,NW,315,0.0,1.0,53,0.00,,,0.00,Wunderground v.1.15,2013-04-18 04:50:00,
2013-04-17 21:55:00,53.0,36.8,30.25,NW,315,0.0,1.0,54,0.00,,,0.00,Wunderground v.1.15,2013-04-18 04:55:00,
2013-04-17 22:00:00,53.0,36.3,30.25,NW,315,1.0,1.0,53,0.00,,,0.00,Wunderground v.1.15,2013-04-18 05:00:00,
2013-04-17 22:10:00,54.1,36.4,30.25,NW,315,0.0,0.0,51,0.00,,,0.00,Wunderground v.1.15,2013-04-18 05:10:00,
2013-04-17 22:15:00,54.6,36.8,30.25,NW,315,0.0,0.0,51,0.00,,,0.00,Wunderground v.1.15,2013-04-18 05:15:00,
2013-04-17 22:20:00,54.9,36.6,30.25,NW,315,0.0,0.0,50,0.00,,,0.00,Wunderground v.1.15,2013-04-18 05:20:00,
2013-04-17 22:30:00,54.2,36.5,30.25,NW,315,0.0,0.0,51,0.00,,,0.00,Wunderground v.1.15,2013-04-18 05:30:00,
2013-04-17 22:35:00,53.9,36.7,30.25,NW,315,0.0,0.0,52,0.00,,,0.00,Wunderground v.1.15,2013-04-18 05:35:00,
2013-04-17 22:40:00,53.6,36.9,30.25,NW,315,0.0,0.0,53,0.00,,,0.00,Wunderground v.1.15,2013-04-18 05:40:00,
2013-04-17 22:45:00,53.5,36.3,30.25,NW,304,0.0,2.0,52,0.00,,,0.00,Wunderground v.1.15,2013-04-18 05:45:00,
2013-04-17 22:55:00,53.9,36.7,30.24,WNW,299,1.0,1.0,52,0.00,,,0.00,Wunderground v.1.15,2013-04-18 05:55:00,
2013-04-17 23:00:00,54.0,36.8,30.24,NW,313,1.0,1.0,52,0.00,,,0.00,Wunderground v.1.15,2013-04-18 06:00:00,
2013-04-17 23:10:00,54.2,36.9,30.24,WNW,301,0.0,2.0,52,0.00,,,0.00,Wunderground v.1.15,2013-04-18 06:10:00,
2013-04-17 23:15:00,54.3,37.0,30.24,NNW,335,0.0,2.0,52,0.00,,,0.00,Wunderground v.1.15,2013-04-18 06:15:00,
2013-04-17 23:20:00,54.2,36.5,30.24,NW,305,1.0,1.0,51,0.00,,,0.00,Wunderground v.1.15,2013-04-18 06:20:00,
2013-04-17 23:25:00,54.2,36.5,30.24,NW,309,1.0,1.0,51,0.00,,,0.00,Wunderground v.1.15,2013-04-18 06:25:00,
2013-04-17 23:35:00,54.1,36.4,30.24,NW,309,1.0,1.0,51,0.00,,,0.00,Wunderground v.1.15,2013-04-18 06:35:00,
2013-04-17 23:40:00,54.0,36.3,30.24,WNW,302,1.0,1.0,51,0.00,,,0.00,Wunderground v.1.15,2013-04-18 06:40:00,
2013-04-17 23:50:00,53.8,36.6,30.24,NW,304,1.0,1.0,52,0.00,,,0.00,Wunderground v.1.15,2013-04-18 06:50:00,
2013-04-17 23:55:00,53.4,36.2,30.25,WNW,288,1.0,3.0,52,0.00,,,0.00,Wunderground v.1.15,2013-04-18 06:55:00,